Location: Costa Valle Imagna
(45.8000°N, 9.5000°E)
Time: 04:49:08
(UTC+00:00)

Daily predictions for brighter satellites

Satellite Brightness Start Highest point End
(mag) Time Altitude Azimuth Time Altitude Azimuth Time Altitude Azimuth
Cosmos 2237 Rocket 4.5 02:21:12 20° NE 02:21:12 20° NE 02:22:55 10° NE
NOSS 3-1 (C) 4.2 02:49:14 69° E 02:49:14 69° E 02:57:10 10° SE
Cosmos 1943 Rocket 4.5 02:49:41 13° N 02:52:53 20° NE 02:56:49 10° E
Lacrosse 5 3.8 02:59:21 26° NE 02:59:21 26° NE 03:02:20 10° E
SL-16 R/B 3.5 02:59:40 35° E 02:59:40 35° E 03:04:31 10° NE
CZ-2C R/B 3.8 03:03:48 10° NNE 03:08:22 37° E 03:08:22 37° E
Cosmos 2369 Rocket 4.4 03:08:46 10° N 03:13:14 23° NE 03:17:41 10° E
USA 215 3.8 03:14:07 10° NE 03:19:59 44° NNW 03:19:59 44° NNW
CZ-4C R/B 3.1 03:29:40 40° N 03:29:40 40° N 03:34:04 10° NNE
Cosmos 2333 Rocket 4.1 03:31:49 18° N 03:31:49 18° N 03:33:53 10° N
USA 229 DEB 3.7 03:35:49 70° SW 03:35:49 70° SW 03:43:11 10° SSE
USA 229 3.7 03:35:52 70° SW 03:35:52 70° SW 03:43:16 10° SSE
ATLAS CENTAUR R/B 2.4 03:43:09 49° NE 03:43:09 49° NE 03:46:26 10° NE
NOSS 3-1 (A) 4.0 03:39:16 39° NW 03:42:36 88° SW 03:51:16 10° SE
H-2A R/B 3.6 03:42:48 10° NNE 03:47:01 46° E 03:48:34 32° SSE
MSX 4.1 03:46:53 10° N 03:51:32 51° NNW 03:51:32 51° NNW
Cosmos 1934 Rocket 3.8 03:46:45 10° NNW 03:53:01 73° W 03:59:20 10° S
IDEFIX/ARIANE 42P 4.2 03:48:25 10° N 03:50:25 22° NNW 03:50:25 22° NNW
Cosmos 1992 Rocket 3.9 03:55:39 65° NNW 03:56:28 90° E 04:01:42 10° SSE
Cosmos 1356 Rocket 3.9 03:58:21 54° NE 03:58:21 54° NE 04:01:42 10° NNE
Cosmos 2237 Rocket 3.2 04:03:01 30° NNW 04:03:01 30° NNW 04:06:53 10° NNE
Cosmos 2251 Rocket 3.4 04:01:11 69° SW 04:01:49 85° WNW 04:07:09 10° NNE
COSMO-SKYMED 1 3.7 04:01:08 10° SE 04:05:15 44° ENE 04:09:24 10° N
BREEZE M DEB (TANK) 3.5 04:06:13 45° NNE 04:06:13 45° NNE 04:11:11 10° E
Meteor 1-31 Rocket 3.2 04:05:22 10° NNE 04:08:25 56° NNE 04:08:25 56° NNE
NOSS 2-1 (C) 4.1 04:12:26 38° NNE 04:12:26 38° NNE 04:14:58 10° NNE
Cosmos 1605 Rocket 3.8 04:06:58 10° N 04:13:14 78° W 04:19:21 10° S
PAYLOAD A 4.4 04:08:40 10° N 04:12:26 43° NW 04:12:26 43° NW
Cosmos 2219 Rocket 4.2 04:14:45 14° NNW 04:14:45 14° NNW 04:16:45 10° N
NOSS 2-1 (D) 4.0 04:16:24 38° N 04:16:24 38° N 04:19:01 10° NNE
Cosmos 1408 Rocket 3.4 04:16:25 70° SW 04:16:25 70° SW 04:20:29 10° S
GEOS 3 Rocket 3.5 04:14:03 10° NE 04:19:22 80° NW 04:21:25 39° SW
CZ-4B R/B 3.9 04:15:55 10° N 04:20:12 77° WNW 04:21:31 44° SSW
Cosmos 2221 3.1 04:16:28 10° S 04:20:37 56° E 04:24:51 10° NNE
Cosmos 1153 Rocket 4.4 04:19:07 10° N 04:25:19 86° E 04:31:27 10° S
ADEOS 4.2 04:20:44 10° N 04:25:00 36° NW 04:25:00 36° NW
Meteor 2-10 Rocket 3.8 04:27:20 43° WSW 04:28:10 46° WNW 04:33:12 10° N
Cosmos 1943 Rocket 2.0 04:31:48 10° NNW 04:37:21 83° WSW 04:42:50 10° SSE
Cosmos 2297 4.2 04:37:32 33° WSW 04:37:36 33° WSW 04:42:34 10° SSW
Cosmos 1727 Rocket 3.9 04:32:40 10° S 04:38:52 81° W 04:45:06 10° N
Lacrosse 5 1.8 04:38:34 27° NW 04:41:24 89° NE 04:46:29 10° SE
ADEOS Rocket 4.1 04:36:51 10° SE 04:42:47 50° ENE 04:49:23 10° N
SL-16 R/B 2.7 04:41:35 31° W 04:43:27 40° NW 04:48:48 10° NNE
Cosmos 292 Rocket 4.2 04:43:28 34° WNW 04:44:24 37° WSW 04:48:45 10° S
CZ-2C R/B 3.2 04:42:11 10° N 04:46:44 32° WNW 04:47:45 29° W
Cosmos 2173 Rocket 4.1 04:43:25 10° N 04:49:46 79° E 04:55:59 10° SSE
Cosmos 407 Rocket 3.7 04:47:13 10° SSW 04:52:32 74° ESE 04:57:50 10° NNE
SKYMED 2 3.5 04:49:03 10° S 04:53:19 58° W 04:57:38 10° NNW
TELKOM 3 4.3 04:54:11 26° N 04:54:11 26° N 04:55:47 10° ENE
Cosmos 1805 Rocket 4.0 04:50:09 10° N 04:54:28 62° E 04:58:45 10° SSE
FENGYUN 3A 3.6 04:51:49 10° NNE 04:57:17 81° WNW 05:02:43 10° SSW
Cosmos 2369 Rocket 2.1 04:52:09 10° NNW 04:57:52 74° WSW 05:03:33 10° SSE
Cosmos 1603 3.7 04:53:39 10° SSW 04:59:23 89° ESE 05:05:07 10° NNE
Cosmos 1140 Rocket 4.1 04:54:21 10° S 04:59:30 61° ESE 05:04:41 10° NNE
Cosmos 1238 4.0 04:57:19 10° S 05:00:23 83° W 05:03:27 10° N
Sich 1 3.8 04:57:31 10° N 05:01:44 53° ENE 05:05:56 10° SSE
Cosmos 2100 Rocket 3.9 04:55:44 10° N 05:01:58 80° W 05:08:08 10° S
Cosmos 1500 Rocket 3.7 04:57:55 10° NNW 05:02:14 50° W 05:06:28 10° SSW
USA 215 4.3 04:56:40 10° ENE 05:02:21 33° N 05:07:21 13° WNW
NOSS 2-1 (E) 4.2 05:01:57 24° WNW 05:02:39 25° NW 05:05:56 10° NNE
Okean O Rocket 2.3 04:58:23 10° NNE 05:02:43 58° E 05:07:00 10° S
CZ-4B DEB 4.2 04:57:17 10° NNE 05:02:49 88° ESE 05:08:17 10° SSW
Meteor 2-3 Rocket 4.1 05:00:49 10° NNW 05:06:10 41° W 05:11:33 10° SSW
Cosmos 1943 3.3 05:00:58 10° SSW 05:06:34 80° ESE 05:12:14 10° NNE
Cosmos 2263 4.1 05:01:49 10° NNW 05:07:33 83° WSW 05:13:12 10° SSE
Cosmos 2061 Rocket 4.2 05:03:29 10° N 05:09:49 79° E 05:16:02 10° SSE
Meteor PRIRODA 4.4 05:07:24 10° N 05:10:43 31° WNW 05:13:59 10° SW
STARLINK-1070 3.8 05:10:27 11° SW 05:13:09 43° SE 05:15:57 10° ENE
Cosmos 1743 Rocket 4.1 05:09:41 10° NNW 05:13:36 34° W 05:17:30 10° SSW
Cosmos 1000 Rocket 4.4 05:07:30 10° S 05:13:40 80° W 05:19:55 10° N
STARLINK-1124 3.3 05:11:29 13° SW 05:13:55 54° SE 05:16:48 10° ENE
STARLINK-1066 3.7 05:11:32 10° SW 05:14:17 44° SE 05:17:06 10° ENE
Cosmos 1190 Rocket 4.0 05:09:12 10° SSW 05:14:28 85° WNW 05:19:49 10° NNE
STARLINK-1081 3.7 05:11:45 10° SW 05:14:31 44° SE 05:17:19 10° ENE
CZ-4B R/B 3.4 05:09:11 10° NNE 05:14:32 73° ESE 05:19:49 10° S
STARLINK-1069 3.7 05:12:11 10° SW 05:14:57 45° SE 05:17:46 10° ENE
STARLINK-1085 3.7 05:12:23 10° SW 05:15:10 45° SE 05:17:59 10° ENE
STARLINK-1086 3.7 05:12:36 10° SW 05:15:24 45° SE 05:18:12 10° ENE
STARLINK-1095 3.7 05:12:50 10° SW 05:15:37 45° SE 05:18:27 10° ENE
STARLINK-1077 3.7 05:13:03 10° SW 05:15:51 46° SE 05:18:41 10° ENE
Cosmos 1484 Rocket 3.7 05:12:34 10° N 05:15:56 27° WNW 05:19:19 10° SW
STARLINK-1075 3.7 05:13:16 10° SW 05:16:05 46° SE 05:18:54 10° ENE
STARLINK-1093 3.6 05:13:29 10° SW 05:16:18 46° SE 05:19:08 10° ENE
STARLINK-1074 3.6 05:13:42 10° SW 05:16:31 46° SE 05:19:21 10° ENE
STARLINK-1087 3.6 05:13:56 10° SW 05:16:45 47° SE 05:19:35 10° ENE
STARLINK-1088 3.6 05:14:09 10° SW 05:16:58 47° SE 05:19:48 10° ENE
STARLINK-1115 3.6 05:14:21 10° SW 05:17:11 47° SE 05:20:01 10° ENE
CZ-4B R/B 4.0 05:14:32 10° NNW 05:17:20 20° WNW 05:18:22 18° W
STARLINK-1076 3.6 05:14:35 10° SW 05:17:24 47° SE 05:20:15 10° ENE
STARLINK-1092 3.6 05:14:49 10° SW 05:17:38 48° SE 05:20:29 10° ENE
STARLINK-1080 3.6 05:15:03 10° SW 05:17:52 48° SE 05:20:42 10° ENE
STARLINK-1090 3.6 05:15:15 10° SW 05:18:05 48° SE 05:20:55 10° ENE
CZ-4C R/B 4.0 05:14:51 12° NW 05:18:15 19° NNW 05:22:50 10° NNE
DMSP B5D1-3 4.4 05:13:12 10° S 05:18:17 79° WSW 05:23:25 10° NNW
STARLINK-1089 3.6 05:15:28 10° SW 05:18:18 48° SE 05:21:09 10° ENE
STARLINK-1107 3.5 05:15:43 10° SW 05:18:32 48° SE 05:21:23 10° ENE
STARLINK-1109 3.5 05:15:55 10° SW 05:18:45 49° SE 05:21:36 10° ENE
STARLINK-1091 3.5 05:16:10 10° SW 05:19:00 49° SE 05:21:51 10° ENE
STARLINK-1072 3.5 05:16:22 10° SW 05:19:12 49° SE 05:22:03 10° ENE
STARLINK-1096 3.5 05:16:36 10° SW 05:19:25 49° SE 05:22:16 10° ENE
STARLINK-1079 3.5 05:16:49 10° SW 05:19:39 50° SE 05:22:30 10° ENE
ALOS 2.6 05:15:24 10° N 05:19:51 44° WNW 05:24:16 10° SW
STARLINK-1116 3.5 05:17:03 10° SW 05:19:53 50° SE 05:22:45 10° ENE
STARLINK-1094 3.5 05:17:29 10° SW 05:20:20 51° SE 05:23:11 10° ENE
STARLINK-1117 3.5 05:17:42 10° SW 05:20:32 51° SE 05:23:24 10° ENE
STARLINK-1078 3.4 05:17:57 10° SW 05:20:47 51° SE 05:23:39 10° ENE
STARLINK-1108 3.4 05:18:09 10° SW 05:21:00 51° SE 05:23:52 10° ENE
STARLINK-1071 3.4 05:18:22 10° SW 05:21:12 52° SE 05:24:04 10° ENE
Cosmos 1459 Rocket 4.0 05:15:12 10° NNW 05:21:16 63° W 05:27:24 10° S
ATLAS CENTAUR R/B 3.1 05:19:22 15° WNW 05:21:21 20° NW 05:24:37 10° N
STARLINK-1110 3.4 05:18:36 10° SW 05:21:27 52° SE 05:24:19 10° ENE
STARLINK-1122 3.4 05:19:03 10° SW 05:21:54 53° SE 05:24:46 10° ENE
STARLINK-1126 3.4 05:19:16 10° SW 05:22:08 53° SE 05:25:00 10° ENE
H-2A R/B 3.9 05:18:58 10° NNW 05:22:13 21° WNW 05:25:10 11° WSW
STARLINK-1082 3.4 05:19:30 10° SW 05:22:21 53° SE 05:25:13 10° ENE
STARLINK-1100 3.4 05:19:43 10° SW 05:22:35 53° SE 05:25:27 10° ENE
STARLINK-1083 3.4 05:19:56 10° SW 05:22:47 54° SE 05:25:39 10° ENE
Meteor 2-2 Rocket 4.4 05:16:53 10° SSW 05:22:49 62° WNW 05:28:48 10° N
STARLINK-1125 3.4 05:20:10 10° SW 05:23:02 54° SE 05:25:54 10° ENE
Cosmos 1656 Rocket 3.8 05:18:41 10° NNW 05:24:24 87° ENE 05:30:05 10° SSE
Cosmos 2084 4.5 05:20:42 10° SSW 05:25:04 51° ESE 05:29:26 10° NE
Cosmos 614 Rocket 4.1 05:22:09 10° SW 05:27:09 51° WNW 05:32:15 10° NNE
Cosmos 1725 Rocket 4.1 05:21:06 10° N 05:27:23 84° E 05:33:40 10° S
STARLINK-1118 2.8 05:26:06 10° SW 05:28:40 63° SE 05:31:15 10° ENE
Cosmos 2123 Rocket 4.1 05:23:55 10° S 05:30:14 85° E 05:36:35 10° N
Cosmos 676 Rocket 4.2 05:26:12 10° SSW 05:31:31 83° ESE 05:36:53 10° NNE
Cosmos 1151 Rocket 4.4 05:29:07 10° SSE 05:33:11 44° E 05:37:19 10° NNE
STARLINK-1144 4.5 05:30:34 10° SW 05:34:25 49° SE 05:38:17 10° ENE
Cosmos 1802 Rocket 4.1 05:28:15 10° NNW 05:34:36 61° W 05:40:53 10° S
Cosmos 1633 3.0 05:31:28 10° NNW 05:34:52 38° W 05:38:16 10° SSW
PAYLOAD B 4.3 05:29:42 10° N 05:35:11 59° WNW 05:40:38 10° SSW
STARLINK-1103 4.3 05:35:02 10° SW 05:38:55 53° SE 05:42:48 10° ENE
Shenzhou-11 Module 3.7 05:38:17 10° SW 05:40:30 24° SSE 05:42:44 10° ESE
Aureole 2 Rocket 3.2 05:38:16 10° NW 05:40:50 26° WSW 05:43:30 10° SSW
COSMO-SKYMED 1 3.9 05:38:30 10° SW 05:41:38 19° W 05:44:46 10° NW
NOAA 6 4.1 05:37:27 10° N 05:42:33 58° WNW 05:47:35 10° SSW
STARLINK-1101 4.2 05:39:34 10° SW 05:43:29 58° SE 05:47:24 10° ENE
STARLINK-1128 4.0 05:42:09 10° SW 05:46:03 62° SE 05:49:57 10° ENE
SL-08 R/B 4.5 05:40:35 10° NNW 05:46:42 68° W 05:52:43 10° S
STARLINK-1102 4.0 05:43:59 10° SW 05:47:56 62° SE 05:51:54 10° ENE
Cosmos 1864 Rocket 4.5 05:41:55 10° NNW 05:48:00 69° W 05:54:06 10° S
Cosmos 921 Rocket 3.8 05:45:04 10° NW 05:49:02 32° W 05:52:55 10° SSW
Cosmos 1340 3.3 05:46:05 10° N 05:49:49 60° ENE 05:53:32 10° SSE
STARLINK-1113 3.9 05:46:28 10° SW 05:50:23 66° SE 05:54:18 10° ENE
Cosmos 1633 Rocket 3.0 05:46:07 10° N 05:50:30 80° W 05:54:52 10° S
Cosmos 1666 Rocket 3.6 05:46:48 10° NNW 05:51:13 64° W 05:55:34 10° S
YAOGAN 6 4.2 05:48:39 10° NNE 05:51:59 40° E 05:55:19 10° S
STARLINK-1111 3.9 05:48:31 10° SW 05:52:28 67° SE 05:56:27 10° ENE
STARLINK-1119 3.8 05:50:45 10° SW 05:54:40 71° SE 05:58:37 10° ENE
